Location: ???????????
(54.5822°N, 39.1075°E)
Time: 02:52:52
(UTC+00:00)

IRIDIUM 106 - Pass Details

Date: 19 May 2025
Orbit: 776 x 779 km, 86.4° (Epoch: 15 June)

Event Time Altitude Azimuth Distance (km) Brightness Sun altitude
Exits shadow 22:59:10 18° 198° (SSW) 1,862 5.6 -12.5°
Maximum altitude 23:03:07 66° 278° (W) 855 4.5 -12.2°
Drops below altitude 10° 23:08:21 10° 1° (N) 2,344 7.9 -11.9°
Sets 23:10:44 0° 4° (N) 3,276 9.0 -11.8°
